Voltar ao catálogo

STARLINK-34827

AtivoComunicaçõesVLEO
NORAD 65038·PAYLOAD·🇺🇸 United States

Lançado Jul 30, 2025 de Cape Canaveral Space Force Station

Loading…

Próximas Passagens (próximas 24 horas)

TLE

AtualizadoSource: CelesTrak SupGP

Época: Sep 14, 2026, 21:20 UTC

1 65038C 25161Z   26257.88937500 -.00065570  00000+0 -19373-2 0  2575
2 65038  53.1571 131.8005 0001262  87.9307  59.9104 15.34423688    12

Acompanhe STARLINK-34827 em tempo real com AllMySat

Download on the App Store